Regional Weather Roundup
Issued by NWS

Home | Current Version | Previous Version | Text Only | Print | Product List | Glossary Off
Versions: 1 2 3 4 5 6 7 8 9 10 11 12 13 14 15 16 17 18 19 20 21 22 23 24 25 26 27 28 29 30 31 32 33 34 35 36 37 38 39 40 41 42 43 44 45 46 47 48 49 50

000
ASUS43 KLOT 291908
RWRIL

ILLINOIS REGIONAL WEATHER ROUNDUP
NATIONAL WEATHER SERVICE CHICAGO/ROMEOVILLE IL
200 PM CDT WED MAR 29 2017

NOTE: "FAIR" INDICATES FEW OR NO CLOUDS BELOW 12,000 FEET WITH NO
SIGNIFICANT WEATHER AND/OR OBSTRUCTIONS TO VISIBILITY.

* THESE STATIONS ARE NOT UNDER NWS QUALITY CONTROL. THEY ALSO MAY NOT
  REPORT WEATHER SUCH AS PRECIPITATION OR FOG.

ILZ001-002-007-009-015-016-024-292000-
NORTHWEST ILLINOIS

CITY           SKY/WX    TMP DP  RH WIND       PRES   REMARKS
MOLINE         CLOUDY    49  43  80 E20G28    30.06F
STERLING*      LGT RAIN  48  40  73 E21       30.10F
SAVANNA*       CLOUDY    49  37  63 E23       30.11F
$$

ILZ003-004-008-010-011-017-018-292000-
NORTH CENTRAL ILLINOIS

CITY           SKY/WX    TMP DP  RH WIND       PRES   REMARKS
ROCKFORD       LGT RAIN  48  34  58 E12       30.21F
FREEPORT*      CLOUDY    45  37  76 NE16      30.18F
ROCHELLE*      LGT RAIN  47  37  67 E13       30.17F
DE KALB*       CLOUDY    46  37  70 E13       30.20F
PERU*          LGT RAIN  48  39  70 E14G22    30.11F
$$

ILZ005-006-012>014-019>023-292000-
NORTHEAST ILLINOIS

CITY           SKY/WX    TMP DP  RH WIND       PRES   REMARKS
CHICAGO-OHARE  CLOUDY    45  35  68 NE12      30.21F
CHICAGO-MIDWAY CLOUDY    47  36  65 NE17G23   30.20F
AURORA         CLOUDY    51  35  54 E15       30.18F
LANSING*       MOSUNNY   46  39  76 NE14      30.20F
JOLIET*        CLOUDY    53  38  55 E15G21    30.18S
WAUKEGAN       CLOUDY    41  35  79 NE7       30.25F
DUPAGE AIRPORT CLOUDY    47  37  68 NE10      30.20S
KANKAKEE*      CLOUDY    55  35  47 E16       30.16F
WHEELING       CLOUDY    42  35  76 NE9       30.24F
MORRIS*        CLOUDY    54  35  49 E12       30.14F
ROMEOVILLE*    CLOUDY    50  40  70 E13       30.19S
NORTHERLY ISL    N/A     40  36  86 N10         N/A
$$

LMZ740>746-292000-
SOUTHERN LAKE MICHIGAN

STATION/POSITION SKY/WX   TEMP    WIND        PRES    VSBY  WAVE
                          AIR SEA DIR/SP/G                  HT/PER
                          (F)     (DEG/KT/KT) (MB)    (MI)  (FT/S)
HARRISON CRIB              39      40/ 15/ 16   N/A
BURNHAM HARBOR             40     360/  8/ 12   N/A
CALUMET HARBOR             40      10/ 12/ 16 1022.5F
BURNS HARBOR               41      60/ 11/ 13 1023.0F
MICHIGAN CITY              40      10/ 11/ 12   N/A
$$

ILZ025>027-034>036-040-047-049-050-058-095>099-292000-
WEST-CENTRAL ILLINOIS

CITY           SKY/WX    TMP DP  RH WIND       PRES   REMARKS
QUINCY         CLOUDY    51  48  89 E20G31    29.90F
GALESBURG*     CLOUDY    48  44  88 E17G30    30.02F
MACOMB*        CLOUDY    48  47  95 E21       30.03F
JACKSONVILLE*  CLOUDY    50  47  90 E28G36    29.99F
PITTSFIELD*    CLOUDY    53  49  89 E15G26    29.95F
$$

ILZ028>032-037-038-041>044-048-051>054-059>061-292000-
CENTRAL ILLINOIS

CITY           SKY/WX    TMP DP  RH WIND       PRES   REMARKS
PONTIAC        LGT RAIN  53  42  65 E16G25    30.13F
BLOOMINGTON    LGT RAIN  51  44  77 E12       30.12F
DECATUR        RAIN      50  47  89 E13       30.08F FOG
PEORIA         LGT RAIN  49  44  83 E12       30.07F
LACON*         LGT RAIN  48  43  81 E12G26    30.09F
LINCOLN*       RAIN      50  48  93 E9        30.08F
SPRINGFIELD    LGT RAIN  51  47  86 E20G28    30.04F
TAYLORVILLE    CLOUDY    52  50  93 E15       30.03F
$$

ILZ033-039-045-046-055>057-062-063-292000-
EAST-CENTRAL ILLINOIS

CITY           SKY/WX    TMP DP  RH WIND       PRES   REMARKS
CHAMPAIGN      CLOUDY    57  41  55 E13       30.09F
RANTOUL*       CLOUDY    58  39  50 E16       30.10F
MATTOON        CLOUDY    54  48  80 E9        30.07S
PARIS*         CLOUDY    59  45  60 E8        30.10R
$$

ILZ079-100>102-292000-
SOUTHWEST ILLINOIS

CITY           SKY/WX    TMP DP  RH WIND       PRES   REMARKS
ALTON          CLOUDY    55  50  82 E16G24    29.96F
BELLEVILLE     CLOUDY    62  55  75 NE13      29.93F
CAHOKIA*       CLOUDY    63  53  70 E18G25    29.92F
SPARTA*        CLOUDY    64  56  73 E15       29.94F
$$

ILZ064>066-069>071-074>076-080>082-084>086-088>090-092>094-292000-
SOUTH-CENTRAL ILLINOIS

CITY           SKY/WX    TMP DP  RH WIND       PRES   REMARKS
CARBONDALE     CLOUDY    67  58  72 E14       29.93F
CAIRO*         CLOUDY    70  59  69 E15       29.92F
EFFINGHAM*     CLOUDY    58  51  77 E9G21     30.07F
MARION         CLOUDY    70  55  60 SE7       29.96F
MT. VERNON     CLOUDY    65  53  65 E15G23    29.98F
CENTRALIA*     CLOUDY    65  55  70 E16       29.96F
SALEM*         CLOUDY    64  52  63 E12G20    30.00F
METROPOLIS*    PTSUNNY   70  56  62 SE10G16   29.96F
$$

ILZ067-068-072-073-078-083-087-091-292000-
SOUTHEAST ILLINOIS

CITY           SKY/WX    TMP DP  RH WIND       PRES   REMARKS
LAWRENCEVILLE  CLOUDY    60  50  69 E13       30.08R
FLORA*         PTSUNNY   65  53  65 E13G20    30.02F
FAIRFIELD*     CLOUDY    65  53  63 E10       30.01F
HARRISBURG*    MOSUNNY   66  56  70 E17       29.98F
ROBINSON*      CLOUDY    58  49  73 SE15      30.09R
CARMI*         PTSUNNY   68  55  64 E18       30.00F
$$

ABBREVIATIONS USED IN REMARKS
   TC - TEMPERATURE IN CELSIUS
  WCI - WIND CHILL INDEX
   HX - HEAT INDEX
  VSB - VISIBILITY
$$




USA.gov is the U.S. government's official web portal to all federal, state and local government web resources and services.